Voltar ao catálogo

STARLINK-34904

AtivoComunicaçõesSSO
NORAD 65274·PAYLOAD·🇺🇸 United States

Lançado Aug 22, 2025 de Vandenberg Space Force Base

Loading…

Próximas Passagens (próximas 24 horas)

TLE

AtualizadoSource: CelesTrak SupGP

Época: Sep 15, 2026, 02:35 UTC

1 65274C 25184B   26258.10812500  .00043367  00000+0  13454-2 0  2583
2 65274  97.2835 306.1007 0001120  95.6672 300.1102 15.33437280    10

Acompanhe STARLINK-34904 em tempo real com AllMySat

Download on the App Store